This is the latest recevied weather packets stored in our database for station/object K9JWM. If no packets are shown the sender has not sent any weather packets the latest 10 day(s).
| Time | Temp. | Humidity | Pressure | Rain* | Wind** | Luminosity | Snow |
|---|---|---|---|---|---|---|---|
| 1777997830 | 2.22° C | 62% | 1008.6 hPa | 0 mm | - | - | - |
| 1777996931 | 2.22° C | 62% | 1008.5 hPa | 0 mm | - | - | - |
| 1777996030 | 2.22° C | 61% | 1008.2 hPa | 0 mm | - | - | - |
| 1777995128 | 2.22° C | 61% | 1008.1 hPa | 0 mm | - | - | - |
| 1777994230 | 2.78° C | 59% | 1007.7 hPa | 0 mm | - | - | - |
| 1777993330 | 2.78° C | 62% | 1007.6 hPa | 0 mm | - | - | - |
| 1777992429 | 2.78° C | 62% | 1007.4 hPa | 0 mm | - | - | - |
| 1777991529 | 2.22° C | 66% | 1007.2 hPa | 0 mm | - | - | - |
| 1777990629 | 2.22° C | 62% | 1007.1 hPa | 0 mm | - | - | - |
| 1777989730 | 1.67° C | 65% | 1007.1 hPa | 0 mm | - | - | - |
| 1777988830 | 1.67° C | 66% | 1007 hPa | 0 mm | - | - | - |
| 1777987929 | 1.67° C | 68% | 1006.9 hPa | 0 mm | - | - | - |
| 1777987030 | 1.67° C | 69% | 1006.6 hPa | 0 mm | - | - | - |
| 1777986130 | 1.11° C | 71% | 1006.3 hPa | 0 mm | - | - | - |
| 1777985230 | 1.11° C | 71% | 1006.1 hPa | 0 mm | - | - | - |
| 1777984329 | 1.11° C | 73% | 1005.9 hPa | 0 mm | - | - | - |
| 1777983430 | 1.11° C | 77% | 1005.6 hPa | 0 mm | - | - | - |
| 1777982529 | 1.11° C | 79% | 1005.4 hPa | 0 mm | - | - | - |
| 1777981629 | 1.11° C | 76% | 1005.2 hPa | 0 mm | - | - | - |
| 1777980729 | 1.11° C | 77% | 1005 hPa | 0 mm | - | - | - |
| 1777979830 | 1.11° C | 75% | 1004.7 hPa | 0 mm | - | - | - |
| 1777978929 | 1.67° C | 76% | 1004.4 hPa | 0 mm | - | - | - |
| 1777978029 | 1.67° C | 74% | 1004.3 hPa | 0 mm | - | - | - |
| 1777977130 | 1.67° C | 75% | 1004.3 hPa | 0 mm | - | - | - |
| 1777976229 | 1.67° C | 74% | 1004.1 hPa | 0 mm | - | - | - |
* Rain latest hour (hover to see other rain measurements)
** Current wind speed in m/s (hover to see current wind gust speed)